Summerville, SC

2:16 PM EDT on April 26, 2017 (GMT -0400)
Summerville

Weather History for KDYB - December, 2011

Change the Weather History Date:

Sunday, December 11, 2011

  Actual Average (KCHS) Record (KCHS)
Temperature  
Mean Temperature 42 °F -  
Max Temperature 53 °F 62 °F 83 °F (1972)
Min Temperature 32 °F 42 °F 18 °F (1981)
Degree Days  
Heating Degree Days 22    
Moisture  
Dew Point 33 °F    
Average Humidity 72    
Maximum Humidity 100    
Minimum Humidity 44    
Precipitation  
Precipitation 0.00 in - - ()
Sea Level Pressure  
Sea Level Pressure 30.44 in    
Wind  
Wind Speed 6 mph (NNE)    
Max Wind Speed 17 mph    
Max Gust Speed 24 mph    
Visibility 10 miles    
Events      
Averages and records for this station are not official NWS values.
T = Trace of Precipitation, MM = Missing Value Source: NWS Daily Summary

Daily Weather History Graph

Daily Weather History Graph

Search for Another Location

Airport or City:

Trip Planner

Search our weather history database for the weather conditions in past years. The results will help you decide how hot, cold, wet, or windy it might be!

Date:

Astronomy

Dec. 11, 2011 Rise Set
Actual Time 7:13 AM EST 5:14 PM EST
Civil Twilight 6:46 AM EST 5:41 PM EST
Nautical Twilight 6:15 AM EST 6:12 PM EST
Astronomical Twilight 5:45 AM EST 6:42 PM EST
Moon 6:22 PM EST (12/11) 8:00 AM EST (12/11)
Length of Visible Light 10h 55m
Length of Day
10h 00m
Full, 99% of the Moon is Illuminated
Dec 11
Full
Dec 17
Last Quarter
Dec 24
New
Jan 1
First Quarter
Jan 9
Full

Hourly Weather History & Observations

Time (EST) Temp. Windchill Dew Point Humidity Pressure Visibility Wind Dir Wind Speed Gust Speed Precip Events Conditions
12:15 AM 35.6 °F - 33.8 °F 93% 30.41 in 10.0 mi Calm Calm - N/A   Clear
12:35 AM 33.8 °F 30.8 °F 33.8 °F 100% 30.40 in 10.0 mi NNE 3.5 mph - N/A   Clear
12:55 AM 33.8 °F 30.8 °F 33.8 °F 100% 30.40 in 10.0 mi NNE 3.5 mph - N/A   Clear
1:15 AM 33.8 °F 30.8 °F 33.8 °F 100% 30.40 in 10.0 mi North 3.5 mph - N/A   Clear
1:35 AM 33.8 °F 29.6 °F 32.0 °F 93% 30.39 in 10.0 mi NNE 4.6 mph - N/A   Clear
1:55 AM 33.8 °F 30.8 °F 33.8 °F 100% 30.40 in 10.0 mi NE 3.5 mph - N/A   Clear
2:15 AM 33.8 °F 30.8 °F 33.8 °F 100% 30.40 in 10.0 mi NNE 3.5 mph - N/A   Clear
2:35 AM 32.0 °F 28.7 °F 32.0 °F 100% 30.40 in 10.0 mi NNE 3.5 mph - N/A   Clear
2:55 AM 32.0 °F 28.7 °F 32.0 °F 100% 30.40 in 10.0 mi North 3.5 mph - N/A   Clear
3:15 AM 32.0 °F 28.7 °F 32.0 °F 100% 30.41 in 10.0 mi North 3.5 mph - N/A   Clear
3:35 AM 32.0 °F 27.5 °F 32.0 °F 100% 30.42 in 10.0 mi NNW 4.6 mph - N/A   Clear
3:55 AM 33.8 °F 28.6 °F 33.8 °F 100% 30.40 in 10.0 mi North 5.8 mph - N/A   Clear
4:15 AM 33.8 °F 29.6 °F 33.8 °F 100% 30.41 in 10.0 mi North 4.6 mph - N/A   Clear
4:35 AM 33.8 °F 29.6 °F 32.0 °F 93% 30.41 in 10.0 mi North 4.6 mph - N/A   Clear
4:55 AM 33.8 °F 29.6 °F 33.8 °F 100% 30.41 in 10.0 mi North 4.6 mph - N/A   Clear
5:15 AM 33.8 °F 27.7 °F 33.8 °F 100% 30.41 in 10.0 mi North 6.9 mph - N/A   Clear
5:35 AM 33.8 °F 30.8 °F 33.8 °F 100% 30.42 in 10.0 mi North 3.5 mph - N/A   Scattered Clouds
5:55 AM 33.8 °F 30.8 °F 32.0 °F 93% 30.43 in 10.0 mi North 3.5 mph - N/A   Scattered Clouds
6:15 AM 33.8 °F 28.6 °F 32.0 °F 93% 30.44 in 10.0 mi North 5.8 mph - N/A   Mostly Cloudy
6:35 AM 35.6 °F 32.8 °F 33.8 °F 93% 30.45 in 10.0 mi North 3.5 mph - N/A   Scattered Clouds
6:55 AM 35.6 °F 30.7 °F 33.8 °F 93% 30.44 in 10.0 mi NNE 5.8 mph - N/A   Scattered Clouds
7:15 AM 37.4 °F 32.8 °F 33.8 °F 87% 30.46 in 10.0 mi NNE 5.8 mph - N/A   Scattered Clouds
7:35 AM 37.4 °F 32.8 °F 33.8 °F 87% 30.46 in 10.0 mi North 5.8 mph - N/A   Scattered Clouds
7:55 AM 37.4 °F 31.4 °F 33.8 °F 87% 30.46 in 10.0 mi North 8.1 mph 16.1 mph N/A   Mostly Cloudy
8:15 AM 37.4 °F 31.4 °F 35.6 °F 93% 30.46 in 10.0 mi North 8.1 mph - N/A   Mostly Cloudy
8:35 AM 37.4 °F 32.1 °F 35.6 °F 93% 30.47 in 10.0 mi North 6.9 mph - N/A   Scattered Clouds
8:55 AM 41.0 °F 35.2 °F 35.6 °F 81% 30.49 in 10.0 mi NNE 9.2 mph 16.1 mph N/A   Mostly Cloudy
9:15 AM 42.8 °F 38.0 °F 35.6 °F 76% 30.51 in 10.0 mi NNE 8.1 mph - N/A   Overcast
9:35 AM 42.8 °F 38.0 °F 35.6 °F 76% 30.52 in 10.0 mi NNE 8.1 mph - N/A   Overcast
9:55 AM 46.4 °F 41.1 °F 33.8 °F 62% 30.51 in 10.0 mi NNE 11.5 mph 19.6 mph N/A   Overcast
10:15 AM 46.4 °F 41.9 °F 33.8 °F 62% 30.50 in 10.0 mi NNE 9.2 mph 21.9 mph N/A   Scattered Clouds
10:35 AM 48.2 °F - 33.8 °F 58% 30.50 in 10.0 mi NNE 15.0 mph 21.9 mph N/A   Clear
10:55 AM 48.2 °F - 33.8 °F 58% 30.50 in 10.0 mi NNE 12.7 mph 24.2 mph N/A   Mostly Cloudy
11:15 AM 50.0 °F - 32.0 °F 50% 30.50 in 10.0 mi NNE 11.5 mph 19.6 mph N/A   Overcast
11:35 AM 50.0 °F - 32.0 °F 50% 30.49 in 10.0 mi NNE 9.2 mph 12.7 mph N/A   Overcast
11:55 AM 50.0 °F - 32.0 °F 50% 30.48 in 10.0 mi NNE 9.2 mph 16.1 mph N/A   Overcast
12:15 PM 51.8 °F - 32.0 °F 47% 30.46 in 10.0 mi NNE 13.8 mph 21.9 mph N/A   Overcast
12:35 PM 53.6 °F - 32.0 °F 44% 30.46 in 10.0 mi NNE 17.3 mph 20.7 mph N/A   Overcast
12:55 PM 51.8 °F - 32.0 °F 47% 30.45 in 10.0 mi NNE 13.8 mph 19.6 mph N/A   Overcast
1:15 PM 53.6 °F - 33.8 °F 47% 30.45 in 10.0 mi NNE 11.5 mph 19.6 mph N/A   Overcast
1:35 PM 53.6 °F - 32.0 °F 44% 30.44 in 10.0 mi NNE 15.0 mph 20.7 mph N/A   Overcast
1:55 PM 53.6 °F - 32.0 °F 44% 30.44 in 10.0 mi NNE 10.4 mph - N/A   Overcast
2:15 PM 53.6 °F - 33.8 °F 47% 30.44 in 10.0 mi NNE 10.4 mph 16.1 mph N/A   Overcast
2:35 PM 53.6 °F - 32.0 °F 44% 30.43 in 10.0 mi NNE 10.4 mph 19.6 mph N/A   Overcast
2:55 PM 53.6 °F - 33.8 °F 47% 30.43 in 10.0 mi NNE 11.5 mph 21.9 mph N/A   Overcast
3:15 PM 53.6 °F - 33.8 °F 47% 30.43 in 10.0 mi NNE 11.5 mph 18.4 mph N/A   Overcast
3:35 PM 53.6 °F - 33.8 °F 47% 30.43 in 10.0 mi North 8.1 mph - N/A   Overcast
3:55 PM 53.6 °F - 33.8 °F 47% 30.43 in 10.0 mi NNE 12.7 mph 17.3 mph N/A   Overcast
4:15 PM 53.6 °F - 33.8 °F 47% 30.43 in 10.0 mi NNE 9.2 mph - N/A   Overcast
4:35 PM 51.8 °F - 33.8 °F 50% 30.43 in 10.0 mi North 11.5 mph 16.1 mph N/A   Mostly Cloudy
4:55 PM 51.8 °F - 33.8 °F 50% 30.44 in 10.0 mi NNE 6.9 mph - N/A   Scattered Clouds
5:15 PM 51.8 °F - 32.0 °F 47% 30.44 in 10.0 mi NNE 9.2 mph - N/A   Clear
5:35 PM 50.0 °F - 32.0 °F 50% 30.44 in 10.0 mi NNE 9.2 mph - N/A   Clear
5:55 PM 50.0 °F - 32.0 °F 50% 30.44 in 10.0 mi NNE 8.1 mph - N/A   Clear
6:15 PM 50.0 °F - 32.0 °F 50% 30.44 in 10.0 mi NE 8.1 mph - N/A   Clear
6:35 PM 50.0 °F - 32.0 °F 50% 30.45 in 10.0 mi NNE 8.1 mph - N/A   Scattered Clouds
6:55 PM 50.0 °F - 32.0 °F 50% 30.45 in 10.0 mi NNE 6.9 mph - N/A   Mostly Cloudy
7:15 PM 50.0 °F - 32.0 °F 50% 30.46 in 10.0 mi NNE 9.2 mph - N/A   Overcast
7:35 PM 50.0 °F - 32.0 °F 50% 30.46 in 10.0 mi NNE 5.8 mph - N/A   Mostly Cloudy
7:55 PM 50.0 °F - 32.0 °F 50% 30.47 in 10.0 mi NNE 8.1 mph - N/A   Overcast
8:15 PM 50.0 °F - 32.0 °F 50% 30.46 in 10.0 mi NNE 10.4 mph 17.3 mph N/A   Overcast
8:35 PM 48.2 °F - 32.0 °F 54% 30.45 in 10.0 mi NNE 9.2 mph - N/A   Mostly Cloudy
8:55 PM 48.2 °F - 32.0 °F 54% 30.45 in 10.0 mi NNE 10.4 mph 18.4 mph N/A   Scattered Clouds
9:15 PM 48.2 °F - 32.0 °F 54% 30.46 in 10.0 mi NNE 8.1 mph 19.6 mph N/A   Clear
9:55 PM 46.4 °F 41.1 °F 32.0 °F 57% 30.44 in 10.0 mi NNE 11.5 mph - N/A   Clear
10:15 PM 46.4 °F 42.9 °F 32.0 °F 57% 30.44 in 10.0 mi NNE 6.9 mph - N/A   Clear
10:35 PM 46.4 °F 43.5 °F 32.0 °F 57% 30.46 in 10.0 mi NNE 5.8 mph 9.2 mph N/A   Clear
10:55 PM 46.4 °F 42.4 °F 32.0 °F 57% 30.46 in 10.0 mi NNE 8.1 mph - N/A   Scattered Clouds
11:15 PM 46.4 °F 42.9 °F 32.0 °F 57% 30.45 in 10.0 mi NNE 6.9 mph - N/A   Mostly Cloudy
11:55 PM 46.4 °F 42.9 °F 32.0 °F 57% 30.43 in 10.0 mi NNE 6.9 mph - N/A   Mostly Cloudy